Flag for Switzerland Weather past 2 weeks in Chur, Graubünden, Switzerland

Now
55 °F

Cool.


Feels Like: 52 °F
Forecast: 44 / 74 °F
Wind: 10 mph from South

Location: Chur-Ems


UV Index: 3 (Moderate)

Visibility: N/A


Pressure: 29.64 "Hg

Humidity: 63%

Dew point: 42 °F

Location of ChurLocation

Historic Weather in Chur

°F

Chur temperature yesterday

Maximum temperature yesterday: 61 °F (at 2:00 PM)
Minimum temperature yesterday: 38 °F (at 8:00 AM)
Average temperature yesterday: 50 °F

Past Weeks' High & Low Weather Summary

 TemperatureHumidityPressure
High73 °F (Apr 7, 3:00 PM)94% (Apr 13, 6:00 AM)30.37 "Hg (Apr 13, 6:00 AM)
Low33 °F (Apr 17, 6:00 AM)21% (Apr 17, 4:00 PM)29.59 "Hg (Apr 20, 4:00 PM)
Average51 °F59%30.05 "Hg
* Reported Apr 6 10:00 AM — Apr 21 10:00 AM, Chur, Weather by CustomWeather, © 2014

Note: Actual official high and low records may vary slightly from our data, if they occured in-between our weather recording intervals... More about our weather records

Advertising

Historic Weather Conditions — Data for Previous 24 hours

 ConditionsComfort  
Time TempWeatherWind HumidityBarometerVisibility
10:00 AM
Apr 21
55 °FCool.10 mph63%29.64 "HgN/A
9:00 AM52 °FCool.6 mph67%29.67 "HgN/A
8:00 AM50 °FOvercast.6 mph73%29.67 "Hg12 mi
7:00 AM50 °FCool.3 mph73%29.67 "HgN/A
6:00 AM50 °FCool.3 mph75%29.66 "HgN/A
5:00 AM50 °FFog.5 mph77%29.67 "Hg6 mi
4:00 AM51 °FCool.3 mph73%29.67 "HgN/A
3:00 AM52 °FCool.2 mph70%29.67 "HgN/A
2:00 AM50 °FOvercast.3 mph80%29.68 "Hg5 mi
1:00 AM51 °FCool.2 mph78%29.69 "HgN/A
12:00 AM52 °FCool.No wind75%29.68 "HgN/A
11:00 PM
Apr 20
52 °FOvercast.2 mph77%29.68 "Hg5 mi
10:00 PM53 °FCool.1 mph70%29.67 "HgN/A
9:00 PM54 °FCool.1 mph67%29.66 "HgN/A
8:00 PM56 °FOvercast.5 mph59%29.63 "Hg7 mi
7:00 PM58 °FRefreshingly cool.6 mph55%29.61 "HgN/A
6:00 PM59 °FRefreshingly cool.10 mph56%29.60 "HgN/A
5:00 PM59 °FOvercast.12 mph53%29.60 "Hg12 mi
4:00 PM60 °FRefreshingly cool.13 mph52%29.59 "HgN/A
3:00 PM60 °FRefreshingly cool.15 mph47%29.61 "HgN/A
2:00 PM61 °FScattered clouds.15 mph47%29.61 "Hg12 mi
1:00 PM58 °FRefreshingly cool.15 mph50%29.65 "HgN/A
12:00 PM56 °FRefreshingly cool.12 mph57%29.67 "HgN/A
11:00 AM52 °FScattered clouds.10 mph60%29.70 "Hg19 mi
Weather by CustomWeather, © 2014

See weather overview